Regional Weather Roundup
Issued by NWS

Home | Current Version | Previous Version | Graphics & Text | Print | Product List | Glossary Off
Versions: 1 2 3 4 5 6 7 8 9 10 11 12 13 14 15 16 17 18 19 20 21 22 23 24 25 26 27 28 29 30 31 32 33 34 35 36 37 38 39 40 41 42 43 44 45 46 47 48 49 50

000
ASUS43 KMPX 281201
RWRMN
WEATHER ROUNDUP FOR MINNESOTA
NATIONAL WEATHER SERVICE TWIN CITIES/CHANHASSEN MN
700 AM CDT FRI APR 28 2017


NOTE: "FAIR" INDICATES FEW OR NO CLOUDS BELOW 12,000 FEET WITH NO
SIGNIFICANT WEATHER AND/OR OBSTRUCTIONS TO VISIBILITY. N/A MEANS
CURRENT SKY AND/OR WEATHER CONDITIONS ARE NOT AVAILABLE.

MNZ060>063-068>070-281300-
   Twin Cities Metro

CITY           SKY/WX    TMP DP  RH WIND       PRES   REMARKS
TWIN CITIES    MOCLDY    37  29  72 N9        29.88R
6HR MIN TEMP:  35; 6HR MAX TEMP:  37;

ST PAUL        CLOUDY    37  29  72 NW10      29.89R
CRYSTAL        PTCLDY    34  24  67 NW7       29.87R WCI  28
BLAINE         PTCLDY    36  27  69 N9        29.87
LAKEVILLE      CLEAR     34  30  86 NW6       29.86S WCI  29
EDEN PRAIRIE   CLOUDY    38  30  73 NW6       29.86R
6HR MIN TEMP:  35; 6HR MAX TEMP:  38;

SOUTH ST PAUL  CLOUDY    37  30  75 NW8       29.87R
LAKE ELMO      CLOUDY    36  30  80 N8        29.87R
$$
MNZ001>005-007-008-013>017-022>024-027-028-281300-
   Northwest Minnesota

CITY           SKY/WX    TMP DP  RH WIND       PRES   REMARKS
BEMIDJI        MOCLDY    26  24  91 W7        29.85R WCI  18
HALLOCK        CLEAR     30  27  86 NW7       29.90S WCI  23
ROSEAU         CLEAR     28  23  80 W8        29.87R WCI  20
WARROAD        CLOUDY    28  25  86 W8        29.85R WCI  20
THIEF RVR FALL CLEAR     28  24  85 NW8       29.90R WCI  20
CROOKSTON      CLEAR     30  28  93 NW5       29.92R WCI  25
FOSSTON        CLEAR     27  25  93 NW7       29.89R WCI  19
DETROIT LAKES  CLEAR     30  28  93 NW8       29.88R WCI  23
MOORHEAD       MOCLDY    30  27  86 NW5       29.93R WCI  25
PARK RAPIDS    CLOUDY    31  22  69 N13       29.84S WCI  21
MAHNOMEN       FAIR      26  25  94 NW6       29.88R WCI  20
$$
MNZ006-009>011-018-025>026-281300-
   North Central Minnesota

CITY           SKY/WX    TMP DP  RH WIND       PRES   REMARKS
BAUDETTE       CLOUDY    31  23  72 NW15      29.80R WCI  20
FLAG ISLAND    CLOUDY    30  25  80 NW17      29.81R WCI  18
INTL FALLS     LGT SNOW  28  25  88 W7        29.76R FOG     WCI  21
6HR MIN TEMP:  27; 6HR MAX TEMP:  28; 6HR PCP:  0.02;

WASKISH        MOCLDY    28  27  93 W13G20    29.84R WCI  18
BIG FORK       CLOUDY    28  25  86 W5        29.80R WCI  23
LONGVILLE      CLOUDY    30  23  74 W8G17     29.83R WCI  23
GRAND RAPIDS   CLOUDY    28  22  78 NW14G21   29.83R WCI  17
CRANE LAKE     CLOUDY    27  25  93 W7        29.76R WCI  19
ORR            CLOUDY    27  21  80 W12G20    29.74R WCI  16
COOK           CLOUDY    25  23  93 W10       29.77R WCI  15
WALKER         FAIR      27  23  85 W8        29.85R WCI  18
$$
MNZ012-019>021-037-281300-
   Northeast Minnesota

CITY           SKY/WX    TMP DP  RH WIND       PRES   REMARKS
DULUTH         CLOUDY    29  24  82 W13       29.77R WCI  19
6HR MIN TEMP:  28; 6HR MAX TEMP:  29; 6HR PCP: TRACE;

ELY            CLOUDY    27  21  80 W8        29.72R WCI  18
HIBBING        CLOUDY    26  21  81 NW15G22   29.78R WCI  14
EVELETH        MOCLDY    28  21  75 NW14G20   29.78R WCI  16
DULUTH HARBOR  CLOUDY    34  27  75 W12       29.82R WCI  25
TWO HARBORS    CLOUDY    32  25  74 W9        29.75R WCI  24
SILVER BAY     CLOUDY    28  25  86 W7        29.73R WCI  21
GRAND MARAIS     N/A     30  26  85 W6        29.71R WCI  24
G MARAIS ARPRT CLOUDY    23  18  80 CALM      29.65R
$$
MNZ029>031-032-039>041-046>048-054>057-064-281300-
   West Central Minnesota

CITY           SKY/WX    TMP DP  RH WIND       PRES   REMARKS
FERGUS FALLS   CLEAR     28  27  93 NW5       29.90S WCI  23
WHEATON        CLEAR     28  25  86 NW5       29.93R WCI  23
MORRIS         CLEAR     30  27  86 NW9       29.89R WCI  22
ALEXANDRIA     PTCLDY    30  26  85 N9        29.88R WCI  22
ELBOW LAKE     FAIR      30  27  91 NW10      29.89S WCI  21
WADENA         CLOUDY    28  25  86 NW10      29.86R WCI  19
GLENWOOD       CLEAR     30  28  93 NW5       29.88R WCI  25
APPLETON       CLEAR     30  27  86 NW6       29.91R WCI  24
BENSON         CLEAR     32  27  80 N7        29.91R WCI  26
ORTONVILLE     CLEAR     28  25  86 NW6       29.91R WCI  22
MADISON        CLEAR     34  28  80 NW7       29.91R WCI  28
WILLMAR        FAIR      32  30  93 NW6       29.90R WCI  26
$$
MNZ033>034-036-042>043-049>051-058-059-281300-
   Central Minnesota

CITY           SKY/WX    TMP DP  RH WIND       PRES   REMARKS
ST CLOUD       CLEAR     31  25  78 N9        29.87R WCI  23
6HR MIN TEMP:  30; 6HR MAX TEMP:  35;

SAUK CENTRE    FAIR      31  24  75 NW10      29.87R WCI  22
PAYNESVILLE    CLEAR     32  30  93 N7        29.88R WCI  26
AITKIN         CLOUDY    32  23  69 W6        29.81S WCI  26
PINE RIVER     MOCLDY    28  25  86 NW9G16    29.87S WCI  20
BRAINERD       PTCLDY    29  23  78 NW12      29.84S WCI  19
STAPLES        CLOUDY    28  25  86 NW8       29.86R WCI  20
LONG PRAIRIE   FAIR      30  23  74 NW8       29.87R WCI  23
LITTLE FALLS   MOCLDY    30  23  74 NW7       29.87R WCI  23
LITCHFIELD     CLEAR     34  30  86 NW3       29.88R
BUFFALO        PTCLDY    34  26  72 NW6       29.89R WCI  29
MAPLE LAKE     PTCLDY    34  28  77 NW7       29.88R WCI  28
HUTCHINSON     CLEAR     34  32  92 NW6       29.88R WCI  29
$$
MNZ037-044-045-052-053-281300-
   East Central Minnesota

CITY           SKY/WX    TMP DP  RH WIND       PRES   REMARKS
PRINCETON      CLEAR     32  25  74 NW8       29.87R WCI  25
MORA           CLOUDY    32  25  74 W6        29.86R WCI  26
CAMBRIDGE      CLEAR     34  21  60 NW7       29.85R WCI  28
RUSH CITY      CLEAR     30  24  78 W5        29.86R WCI  25
MOOSE LAKE     CLOUDY    32  27  80 W6        29.81R WCI  26
HINCKLEY       CLOUDY    32  27  80 W5        29.84R WCI  27
CLOQUET        CLOUDY    28  23  80 W7        29.79R WCI  21
MCGREGOR       CLOUDY    32  27  80 NW8       29.83R WCI  25
$$
MNZ071>073-080-081-089-090-097-098-281300-
   Southwest Minnesota

CITY           SKY/WX    TMP DP  RH WIND       PRES   REMARKS
MONTEVIDEO     CLEAR     30  28  93 N8        29.90  WCI  23
GRANITE FALLS  CLEAR     32  30  91 NW7       29.91R WCI  26
CANBY          CLEAR     31  28  90 W8        29.91R WCI  23
MARSHALL       CLEAR     31  28  89 N12       29.88S WCI  22
REDWOOD FALLS  CLEAR     33  28  81 NW7       29.88R WCI  27
OLIVIA         CLEAR     32  30  93 NW6       29.87S WCI  26
PIPESTONE      CLEAR     30  25  80 NE6       29.85R WCI  24
WINDOM         CLEAR     27  25  93 NW7       29.85F WCI  19
WORTHINGTON    CLOUDY    27  26  96 VRB5      29.86R WCI  22
JACKSON        CLEAR     28  27  93 NW3       29.85S
TRACY          CLEAR     33  30  91 N9        29.87S WCI  25
SLAYTON        CLEAR     25  24  93 N3        29.87R
$$
MNZ065>067-074>077-082>085-091>093-281300-
   South Central Minnesota

CITY           SKY/WX    TMP DP  RH WIND       PRES   REMARKS
MANKATO        CLEAR     32  28  85 S5        29.88R WCI  27
NEW ULM        CLEAR     34  28  80 NW9       29.86F WCI  26
ST JAMES       CLEAR     28  27  93 W6        29.88R WCI  22
FAIRMONT       CLEAR     29  28  96 SW3       29.86S
GLENCOE        CLEAR     33  32  96 NW6       29.87R WCI  28
FARIBAULT      CLEAR     34  28  80 NW7       29.86S WCI  28
OWATONNA       CLEAR     30  27  86 SW7       29.87R WCI  23
WASECA         CLEAR     30  28  93 SW3       29.88R
ALBERT LEA     CLEAR     28  27  93 CALM      29.84F
$$
MNZ078>079-086>088-094>096-281300-
   Southeast Minnesota

CITY           SKY/WX    TMP DP  RH WIND       PRES   REMARKS
ROCHESTER      CLEAR     31  28  89 W6        29.85S WCI  25
6HR MIN TEMP:  29; 6HR MAX TEMP:  33;

RED WING       PTCLDY    36  27  69 CALM      29.86R
STANTON        CLEAR     34  29  84 CALM      29.85S
DODGE CENTER   CLEAR     30  28  93 W6        29.85S WCI  24
WINONA         PTCLDY    32  30  93 CALM      29.89R
AUSTIN         CLEAR     30  27  86 CALM      29.84F
PRESTON        CLEAR     28  25  89 NW5       29.85F WCI  23
$$
ABBREVIATIONS USED IN REMARKS
   TC - TEMPERATURES IN CELSIUS
  WCI - WIND CHILL INDEX
   HX - HEAT INDEX
  VSB - VISIBILITY
$$




USA.gov is the U.S. government's official web portal to all federal, state and local government web resources and services.